S-NET C

Last updated on Tue Sep 22 2026 00:03:30 GMT+0000 (Coordinated Universal Time)

1 43189U 18014K 26264.18572791 .00002823 00000+0 14458-3 0 9998 2 43189 97.5281 168.6758 0011104 42.1843 318.0243 15.17380180471860
UTC large
Height (km)
Speed (km/s)
/
Latitude / Longitude
Inclination (degrees)
Orbital Period (minutes)
Azimuth
Elevation
Range (km)
Doppler Factor

Next 0 passes for location: London (51.5072 / 0.1276)

No passes found over London.
S-NET C